DW8947 Weather Reports


time (UTC)temp
C
wind
direction
speed
KPH
gust
KPH
rain 1hr
cm
rain 24hr
cm
rain mn
cm
humidity
%
barometer
mb
20260505075704 12 167 0.0 0.0 0.00 0.00 0.00 88 1010.4
20260505075204 12 167 0.0 0.0 0.00 0.00 0.00 88 1010.4
20260505074704 12 167 0.0 1.6 0.00 0.00 0.00 87 1010.4
20260505073204 12 167 0.0 1.6 0.00 0.00 0.00 87 1010.2
20260505072204 12 167 0.0 3.2 0.00 0.00 0.00 86 1010.0
20260505070204 13 167 0.0 3.2 0.00 0.00 0.00 85 1009.9
20260505065204 13 167 0.0 3.2 0.00 0.00 0.00 85 1009.8
20260505064704 13 167 0.0 3.2 0.00 0.00 0.00 84 1009.9
20260505064204 13 167 0.0 3.2 0.00 0.00 0.00 84 1009.8
20260505061704 14 102 0.0 3.2 0.00 0.00 0.00 81 1009.5
20260505060705 15 155 0.0 3.2 0.00 0.00 0.00 80 1009.3
20260505055705 15 343 0.0 3.2 0.00 0.00 0.00 79 1009.2
20260505052204 16 337 0.0 3.2 0.00 0.00 0.00 74 1008.8
20260505051704 16 337 0.0 3.2 0.00 0.00 0.00 73 1008.8
20260505041704 17 337 0.0 0.0 0.00 0.00 0.00 66 1008.3
20260505041204 17 337 0.0 0.0 0.00 0.00 0.00 66 1008.3
20260505040704 17 337 0.0 0.0 0.00 0.00 0.00 66 1008.2
20260505035204 18 331 0.0 3.2 0.00 0.00 0.00 64 1008.0
20260505034704 18 331 0.0 3.2 0.00 0.00 0.00 64 1007.9
20260505034204 18 85 0.0 3.2 0.00 0.00 0.00 64 1008.0
20260505033204 19 85 0.0 3.2 0.00 0.00 0.00 62 1007.8
20260505032204 19 85 0.0 0.0 0.00 0.00 0.00 61 1007.7
20260505031704 19 85 0.0 0.0 0.00 0.00 0.00 62 1007.6
20260505031204 20 85 0.0 0.0 0.00 0.00 0.00 64 1007.6
20260505030704 20 85 0.0 0.0 0.00 0.00 0.00 62 1007.6
20260505025704 20 85 0.0 0.0 0.00 0.00 0.00 62 1007.5
20260505025204 20 85 0.0 0.0 0.00 0.00 0.00 61 1007.4
20260505023204 20 85 0.0 0.0 0.00 0.00 0.00 58 1007.4
20260505022204 21 85 0.0 0.0 0.00 0.00 0.00 59 1007.4
20260505015704 21 85 0.0 1.6 0.00 0.00 0.00 59 1007.4
20260505015204 22 85 0.0 3.2 0.00 0.00 0.00 59 1007.4
20260505014704 22 85 0.0 3.2 0.00 0.00 0.00 59 1007.4
20260505012704 22 34 0.0 1.6 0.00 0.00 0.00 57 1007.4
20260505012205 22 20 0.0 3.2 0.00 0.00 0.00 56 1007.4
20260505011704 23 20 0.0 3.2 0.00 0.00 0.00 53 1007.5
20260505011204 23 20 0.0 0.0 0.00 0.00 0.00 54 1007.5
20260505005704 23 20 0.0 3.2 0.00 0.00 0.00 53 1007.5
20260505003704 23 20 0.0 3.2 0.00 0.00 0.00 52 1007.5
20260505003204 23 20 0.0 3.2 0.00 0.00 0.00 52 1007.5
20260505002704 23 4 0.0 1.6 0.00 0.00 0.00 52 1007.5
20260505002204 23 4 0.0 3.2 0.00 0.00 0.00 52 1007.5
20260504235704 23 171 0.0 3.2 0.00 0.00 0.00 49 1007.5
20260504235204 23 158 0.0 3.2 0.00 0.00 0.00 49 1007.5
20260504234704 23 12 1.6 3.2 0.00 0.00 0.00 51 1007.5
20260504234204 23 162 0.0 3.2 0.00 0.00 0.00 50 1007.5
20260504233705 23 162 0.0 3.2 0.00 0.00 0.00 48 1007.5
20260504232703 24 212 0.0 3.2 0.00 0.00 0.00 49 1007.5
20260504231704 25 203 0.0 3.2 0.00 0.00 0.00 47 1007.5
20260504230704 25 180 0.0 3.2 0.00 0.00 0.00 48 1007.6
20260504230204 25 210 1.6 3.2 0.00 0.00 0.00 47 1007.6
20260504225704 24 158 0.0 3.2 0.00 0.00 0.00 47 1007.7
20260504225204 25 158 1.6 3.2 0.00 0.00 0.00 50 1007.7
20260504224204 24 225 0.0 3.2 0.00 0.00 0.00 49 1007.8
20260504223204 24 168 1.6 3.2 0.00 0.00 0.00 49 1007.9
20260504222203 24 181 1.6 3.2 0.00 0.00 0.00 51 1007.9
20260504221204 24 172 0.0 3.2 0.00 0.00 0.00 50 1008.1
20260504220204 24 185 0.0 3.2 0.00 0.00 0.00 52 1008.2
20260504215204 23 174 1.6 3.2 0.00 0.00 0.00 53 1008.3
20260504212204 23 190 0.0 3.2 0.00 0.00 0.00 53 1008.6
20260504205704 23 181 1.6 3.2 0.00 0.00 0.00 52 1008.6
20260504205204 23 209 0.0 3.2 0.00 0.00 0.00 53 1008.7
20260504204204 23 170 1.6 3.2 0.00 0.00 0.00 53 1008.7
20260504202704 23 176 0.0 3.2 0.00 0.00 0.00 52 1008.7
20260504200704 23 34 0.0 3.2 0.00 0.00 0.00 51 1008.8
20260504195204 23 241 0.0 3.2 0.00 0.00 0.00 49 1008.8
20260504194705 22 236 1.6 3.2 0.00 0.00 0.00 51 1008.7
20260504194204 22 285 1.6 3.2 0.00 0.00 0.00 50 1008.7
20260504193204 22 238 1.6 1.6 0.00 0.00 0.00 51 1008.8
20260504192704 22 219 0.0 3.2 0.00 0.00 0.00 54 1008.8
20260504192204 21 214 1.6 3.2 0.00 0.00 0.00 54 1008.9
20260504191204 21 227 1.6 3.2 0.00 0.00 0.00 55 1009.0
20260504190703 20 104 1.6 3.2 0.00 0.00 0.00 56 1009.1
20260504185203 20 92 0.0 4.8 0.00 0.00 0.00 54 1009.2
20260504184204 21 102 0.0 1.6 0.00 0.00 0.00 56 1009.2
20260504183704 21 110 0.0 3.2 0.00 0.00 0.00 54 1009.2
20260504183204 20 39 0.0 3.2 0.00 0.00 0.00 55 1009.2
20260504182204 20 126 0.0 1.6 0.00 0.00 0.00 55 1009.2
20260504180704 20 126 0.0 3.2 0.00 0.00 0.00 58 1009.0
20260504180204 19 126 0.0 1.6 0.00 0.00 0.00 61 1009.1
20260504175704 19 126 0.0 1.6 0.00 0.00 0.00 60 1009.2
20260504175204 19 126 1.6 3.2 0.00 0.00 0.00 61 1009.1
20260504174703 18 126 1.6 3.2 0.00 0.00 0.00 60 1009.1
20260504174204 18 126 1.6 3.2 0.00 0.00 0.00 61 1009.1
20260504173204 18 126 0.0 1.6 0.00 0.00 0.00 65 1009.2
20260504170704 18 67 0.0 3.2 0.00 0.00 0.00 63 1009.1
20260504170203 17 67 0.0 3.2 0.00 0.00 0.00 63 1009.1
20260504150703 13 66 0.0 0.0 0.00 0.00 0.00 77 1008.6
20260504150204 13 66 0.0 0.0 0.00 0.00 0.00 77 1008.5
20260504140704 13 66 0.0 0.0 0.00 0.00 0.00 72 1008.2
20260504120204 15 67 0.0 0.0 0.00 0.00 0.00 67 1007.5
20260504100204 16 67 0.0 0.0 0.00 0.00 0.00 60 1007.4
20260504081704 16 66 0.0 0.0 0.00 0.00 0.00 50 1007.3
20260504081203 16 66 0.0 0.0 0.00 0.00 0.00 51 1007.3
20260504080704 17 66 0.0 0.0 0.00 0.00 0.00 51 1007.3